[[{"header":{"parameterUnit":"m.s-1","parameterCategory":1,"la1":30.2991,"la2":30.254,"lo1":-89.0895,"lo2":-89.0444,"dy":0.0017,"dx":0.0017,"nx":28,"ny":28,"refTime":"2025-12-10T09:00:00:Z","depth":0,"parameterNumber":2,"parameterNumberName":"U-component_of_WINDS"},"data":[0,0,0,0,0,0,0,0,0,0,0,0,0,0,0,0,0,0,0,0,0,0,0,0,0,0,0,0,0,0,0,0,0,0,0,0,0,0,0,0,0,0,0,0,0,0,0,0,0,0,0,0,0,0,0,0,0,0,0.9413,0.9413,0,0.9346,0.9345,0.9345,0.923,0.9228,0.9225,0.9223,0.9159,0.9159,0.9159,0,0,0,0,0,0,0,0,0,0,0,0,0,0.9448,0.9448,0.9413,0.9413,0.9412,0.9346,0.9345,0.9344,0.923,0.9227,0.9225,0.9222,0.9159,0.9159,0.916,0,0,0,0,0,0,0,0,0,0,0,0,0,0.9412,0.9448,0.9414,0.9347,0.934,0.9346,0.9345,0.9344,0.9231,0.9227,0.9224,0.9221,0.9159,0.9159,0.916,0.9227,0,0,0.9161,0.9161,0,0,0,0,0,0,0,0,0.9414,0.9411,0.9357,0.9351,0.9344,0.9293,0.9334,0.9305,0.9231,0.9272,0.9223,0.9219,0.9206,0.9203,0.9197,0.9224,0.9222,0.9161,0.9161,0.9161,0.9162,0,0,0,0,0,0,0,0.9417,0.9413,0.9387,0.9357,0.9348,0.9322,0.9313,0.9328,0.9259,0.9268,0.926,0.9253,0.9202,0.9197,0.9195,0.9221,0.9161,0.9161,0.9162,0.9162,0.9304,0.9307,0,0,0,0,0,0,0.9429,0.9416,0.9389,0.9385,0.9372,0.9324,0.9314,0.9313,0.9258,0.9246,0.9256,0.9248,0.9198,0.9195,0.9192,0.9271,0.9161,0.9162,0.9162,0.93,0.9304,0.9308,0,0,0,0,0,0,0.943,0.9427,0.9392,0.9398,0.9392,0.9327,0.9326,0.9313,0.9308,0.9249,0.9236,0.9264,0.9195,0.9192,0.922,0.9267,0.9162,0.9163,0.9296,0.9301,0.9306,0.9427,0,0,0,0,0,0,0.9431,0.9428,0.9452,0.94,0.9392,0.9419,0.9329,0.9314,0.9308,0.9297,0.9252,0.9242,0.9193,0.922,0.9221,0.9265,0.9163,0.9291,0.9298,0.9305,0.9418,0.9435,0.945,0,0,0,0,0,0.9433,0.9489,0.9454,0.9451,0.942,0.9422,0.9418,0.9359,0.9313,0.9337,0.9299,0.9243,0.9261,0.9224,0.9223,0.9269,0.9288,0.9296,0.9304,0.9411,0.9432,0.945,0,0,0,0,0,0,0.9549,0.9481,0.9441,0.9481,0.9458,0.9402,0.9431,0.9382,0.9373,0.9363,0.9291,0.9282,0.9321,0.9297,0.9257,0.9334,0.9266,0.9274,0.9348,0.9367,0.9383,0.9389,0.9163,0,0,0,0,0,0.9579,0.9586,0.9526,0.9567,0.9557,0.9497,0.9496,0.9452,0.9426,0.9416,0.938,0.9359,0.9359,0.9362,0.9359,0.9414,0.9404,0.9445,0.9461,0.9475,0.9483,0.9514,0.9533,0.9334,0.9334,0.9334,0,0,0.9642,0.9605,0.9614,0.959,0.9567,0.9577,0.9489,0.9503,0.9511,0.9418,0.9443,0.9417,0.9388,0.9431,0.9448,0.9413,0.9536,0.9485,0.9496,0.9497,0.9524,0.9543,0.956,0.9339,0.9338,0.9337,0,0,0.9762,0.9734,0.9766,0.9745,0.9712,0.9671,0.968,0.9632,0.961,0.9634,0.9566,0.9575,0.9577,0.956,0.9552,0.9668,0.9618,0.9669,0.9753,0.9784,0.98,0.9813,0.9858,0.9874,0.9678,0.9678,0.9678,0,0.9845,0.9856,0.979,0.9808,0.9801,0.9718,0.9752,0.9735,0.9703,0.9701,0.9662,0.9665,0.9639,0.9678,0.9707,0.9702,0.9712,0.9675,0.9802,0.9815,0.9827,0.9869,0.9886,0.9685,0.9684,0.9683,0.9683,0,0.9961,0.997,1.0,0.9971,0.9967,0.9994,0.9934,0.9938,0.9896,0.9861,0.9888,0.9854,0.9845,0.9851,0.9809,0.9885,0.9865,0.9815,0.9746,0.9854,0.9892,0.9907,0.9694,0.9692,0.969,0.9688,0,0,1.0152,1.0087,1.01,1.0087,1.0044,1.0051,1.0075,1.0065,1.0072,1.0053,1.0073,1.0078,1.0032,1.0023,0.9979,1.0006,1.0105,0.9953,0.9951,0.9985,1.019,1.023,1.0249,1.007,1.0073,1.0075,1.0194,0,1.0265,1.0301,1.0243,1.0294,1.0303,1.0225,1.0246,1.0224,1.0192,1.0197,1.0162,1.0168,1.0105,1.01,1.0123,1.0088,1.0146,1.0078,1.0091,1.0093,1.0103,1.0269,1.031,1.0424,1.0208,1.021,1.0212,0,1.0401,1.0389,1.0441,1.0398,1.0399,1.042,1.0407,1.0412,1.0386,1.0362,1.0353,1.0301,1.0324,1.0256,1.0289,1.0245,1.0247,1.0231,1.0234,1.0235,1.0161,1.0277,1.0458,1.0477,1.0234,1.0233,1.0231,0,1.0539,1.0536,1.0567,1.0558,1.0508,1.0524,1.0505,1.0475,1.0474,1.0464,1.0463,1.0456,1.0453,1.045,1.0399,1.0354,1.044,1.0366,1.0422,1.0424,1.0445,1.0445,1.0632,1.0443,1.0443,1.0442,1.0442,0,1.0672,1.0708,1.0628,1.0648,1.0686,1.0621,1.0661,1.0633,1.0609,1.0624,1.0555,1.0571,1.0501,1.051,1.047,1.0505,1.0504,1.0486,1.0476,1.0494,1.0497,1.0496,1.0487,1.0447,1.0446,1.0445,1.0444,0,1.0833,1.0781,1.081,1.0761,1.075,1.0781,1.0739,1.0757,1.0721,1.074,1.0741,1.0686,1.0693,1.0641,1.0639,1.0612,1.0668,1.0642,1.0676,1.0669,1.0729,1.0725,1.0924,1.0948,1.0742,1.0744,1.0745,0,1.0923,1.0948,1.0902,1.0907,1.089,1.0898,1.0897,1.0834,1.0836,1.081,1.0832,1.0833,1.0831,1.0846,1.0807,1.0806,1.0782,1.0851,1.0781,1.0799,1.0786,1.0786,1.079,1.0867,1.087,1.0872,1.0873,0,1.1088,1.1062,1.1061,1.1053,1.1054,1.1044,1.103,1.1039,1.0971,1.0977,1.0983,1.0982,1.098,1.0983,1.0974,1.0956,1.0905,1.0896,1.0909,1.0929,1.0949,1.0942,1.0719,1.0892,1.089,1.0889,1.0888,1.0887,1.1218,1.1238,1.1209,1.1212,1.1196,1.1185,1.12,1.1166,1.117,1.1163,1.1126,1.114,1.1117,1.1099,1.1087,1.1098,1.1065,1.1083,1.1088,1.1095,1.1107,1.0945,1.1096,1.1095,1.1095,1.1094,1.1094,0,1.1382,1.136,1.1363,1.1347,1.135,1.13,1.1283,1.129,1.1303,1.1285,1.1284,1.1293,1.1297,1.1259,1.1258,1.1275,1.1252,1.1277,1.1276,1.1274,1.1135,1.1125,1.1296,1.1296,1.1296,1.1296,1.1296,1.1296,1.1468,1.15,1.1471,1.1496,1.1474,1.1486,1.1482,1.1473,1.1458,1.1471,1.1474,1.1448,1.1423,1.142,1.1423,1.1411,1.1416,1.145,1.1431,1.1303,1.1283,1.1265,1.1255,1.1451,1.1451,1.1569,1.157,1.1571]},{"header":{"parameterUnit":"m.s-1","parameterCategory":1,"la1":30.2991,"la2":30.254,"lo1":-89.0895,"lo2":-89.0444,"dy":0.0017,"dx":0.0017,"nx":28,"ny":28,"refTime":"2025-12-10T09:00:00:Z","depth":0,"parameterNumber":3,"parameterNumberName":"V-component_of_WINDS"},"data":[0,0,0,0,0,0,0,0,0,0,0,0,0,0,0,0,0,0,0,0,0,0,0,0,0,0,0,0,0,0,0,0,0,0,0,0,0,0,0,0,0,0,0,0,0,0,0,0,0,0,0,0,0,0,0,0,0,0,0.461,0.4611,0,0.4643,0.4644,0.4644,0.4596,0.4594,0.4592,0.4591,0.4619,0.4621,0.4623,0,0,0,0,0,0,0,0,0,0,0,0,0,0.4501,0.4504,0.461,0.4611,0.4611,0.4643,0.4644,0.4644,0.4596,0.4594,0.4592,0.459,0.4618,0.4621,0.4624,0,0,0,0,0,0,0,0,0,0,0,0,0,0.4543,0.4504,0.461,0.4591,0.459,0.4643,0.4644,0.4644,0.4596,0.4594,0.4591,0.4589,0.4617,0.4621,0.4624,0.4696,0,0,0.4635,0.4636,0,0,0,0,0,0,0,0,0.454,0.4547,0.4594,0.4593,0.4591,0.4613,0.4616,0.4661,0.4597,0.4594,0.4591,0.4588,0.4619,0.4622,0.4633,0.4697,0.4698,0.4635,0.4637,0.4639,0.464,0,0,0,0,0,0,0,0.4538,0.4545,0.4623,0.4594,0.4593,0.458,0.4583,0.4624,0.462,0.4594,0.459,0.4595,0.4617,0.463,0.4634,0.4699,0.4635,0.4638,0.464,0.4641,0.4826,0.4829,0,0,0,0,0,0,0.4538,0.4543,0.4622,0.4624,0.4559,0.4584,0.4587,0.4608,0.4619,0.4618,0.4597,0.4593,0.4625,0.463,0.4634,0.4722,0.4639,0.4642,0.4644,0.4824,0.4827,0.483,0,0,0,0,0,0,0.4536,0.4545,0.4621,0.4583,0.4591,0.4588,0.4613,0.461,0.4623,0.4622,0.462,0.4612,0.4624,0.463,0.4682,0.4722,0.4643,0.4647,0.482,0.4825,0.4829,0.4897,0,0,0,0,0,0,0.4533,0.4545,0.4573,0.4584,0.4594,0.4669,0.4615,0.4613,0.463,0.4624,0.4635,0.4634,0.4622,0.4677,0.4686,0.4726,0.4649,0.4817,0.4822,0.4827,0.4891,0.4903,0.4913,0,0,0,0,0,0.4529,0.4589,0.4575,0.4585,0.4629,0.4672,0.4677,0.4664,0.4633,0.4661,0.4661,0.4634,0.4716,0.4683,0.4692,0.4734,0.4814,0.4821,0.4827,0.4886,0.49,0.4913,0,0,0,0,0,0,0.458,0.459,0.4574,0.464,0.4656,0.4664,0.4698,0.4679,0.4702,0.4696,0.4676,0.4679,0.4737,0.4739,0.4703,0.4805,0.476,0.4768,0.4802,0.4815,0.4826,0.4825,0.4652,0,0,0,0,0,0.4599,0.4635,0.464,0.4698,0.4707,0.4702,0.4719,0.4708,0.4723,0.4729,0.4732,0.4746,0.4776,0.4795,0.4822,0.489,0.4893,0.4923,0.4935,0.4944,0.4952,0.4991,0.5006,0.4851,0.4851,0.4851,0,0,0.4638,0.4648,0.4671,0.4708,0.4719,0.4756,0.4707,0.4747,0.4774,0.4734,0.4786,0.4789,0.4803,0.4865,0.4892,0.4869,0.4995,0.4952,0.4959,0.4962,0.4999,0.5014,0.5027,0.4855,0.4855,0.4854,0,0,0.4729,0.474,0.479,0.4804,0.4822,0.4819,0.4831,0.4842,0.4844,0.4896,0.4867,0.4898,0.4948,0.4961,0.4974,0.5072,0.5049,0.5081,0.5139,0.5178,0.519,0.5201,0.5239,0.5253,0.5089,0.5089,0.5089,0,0.4775,0.4832,0.4818,0.4862,0.488,0.4848,0.4899,0.4911,0.4936,0.4949,0.4923,0.4988,0.4995,0.5061,0.5086,0.5096,0.511,0.5081,0.519,0.5201,0.521,0.5246,0.526,0.5093,0.5093,0.5092,0.5092,0,0.4889,0.4928,0.4966,0.4996,0.5017,0.5064,0.5057,0.508,0.5067,0.5066,0.512,0.5128,0.5157,0.5171,0.5157,0.5236,0.5222,0.5193,0.5148,0.523,0.5263,0.5277,0.5099,0.5097,0.5096,0.5095,0,0,0.5012,0.5036,0.5051,0.5065,0.5085,0.5114,0.5159,0.5191,0.5212,0.523,0.5269,0.5314,0.5289,0.5303,0.529,0.5324,0.5406,0.5291,0.5291,0.5315,0.5496,0.552,0.5536,0.5389,0.5392,0.5394,0.5496,0,0.5106,0.5189,0.5179,0.5257,0.5294,0.5265,0.5305,0.5321,0.5322,0.5352,0.5351,0.5385,0.5347,0.5357,0.5388,0.5389,0.5442,0.5381,0.5426,0.5427,0.5426,0.5553,0.5577,0.5673,0.5508,0.551,0.5512,0,0.5226,0.5254,0.5337,0.5354,0.5369,0.5406,0.5435,0.5465,0.5482,0.548,0.5498,0.548,0.5525,0.5478,0.5541,0.55,0.5517,0.552,0.5523,0.5529,0.5477,0.5564,0.5703,0.5718,0.5532,0.553,0.5529,0,0.5313,0.5369,0.5428,0.544,0.546,0.5487,0.5496,0.5512,0.5532,0.5556,0.557,0.5598,0.5614,0.5636,0.5626,0.5592,0.5692,0.5643,0.5693,0.5693,0.5717,0.5716,0.5863,0.5723,0.5723,0.5723,0.5723,0,0.542,0.5472,0.5468,0.5503,0.5562,0.5549,0.5607,0.5612,0.5626,0.5662,0.5637,0.5671,0.5654,0.5687,0.5679,0.5734,0.574,0.574,0.5738,0.5744,0.5745,0.5757,0.5751,0.5727,0.5726,0.5725,0.5724,0,0.5526,0.5525,0.5587,0.5603,0.5608,0.565,0.5663,0.5696,0.5695,0.5741,0.5751,0.5749,0.5787,0.5779,0.5818,0.5813,0.5883,0.5871,0.5879,0.5877,0.5928,0.5925,0.609,0.6112,0.5956,0.5958,0.5959,0,0.5596,0.5637,0.5658,0.5682,0.5695,0.5732,0.5755,0.5743,0.5767,0.5792,0.5823,0.5858,0.5886,0.5947,0.5949,0.5979,0.5969,0.6025,0.5974,0.598,0.5974,0.5973,0.5978,0.6036,0.6038,0.6039,0.6041,0,0.5721,0.572,0.5754,0.5789,0.5817,0.5843,0.5866,0.5886,0.5877,0.5905,0.5945,0.5967,0.601,0.6046,0.6075,0.6082,0.6061,0.6057,0.607,0.6079,0.6083,0.6085,0.591,0.6053,0.6052,0.6051,0.605,0.605,0.5814,0.585,0.5872,0.5912,0.5929,0.5952,0.5986,0.5991,0.6024,0.6061,0.6051,0.6097,0.6114,0.6152,0.6163,0.6198,0.6177,0.6196,0.6201,0.6207,0.6215,0.6076,0.6203,0.6202,0.6202,0.6201,0.6201,0,0.594,0.5954,0.599,0.6026,0.6058,0.6037,0.6062,0.6089,0.6131,0.615,0.618,0.6226,0.6262,0.6267,0.6301,0.6328,0.6319,0.6337,0.6336,0.6339,0.623,0.6217,0.6344,0.6344,0.6344,0.6344,0.6344,0.6344,0.601,0.6072,0.6073,0.6143,0.6155,0.6203,0.6219,0.6241,0.6257,0.6311,0.6342,0.6346,0.636,0.6395,0.6427,0.6427,0.6442,0.6465,0.6462,0.636,0.6346,0.6333,0.632,0.6467,0.6468,0.6568,0.6569,0.657]}]]